User: anonymous   Login
Location: Seasalter
(51.3333°N, 1.0167°E)
Time: 20:37:18
(UTC+00:00)
Language:

IRS-1D - Orbit

View from above orbital plane
View from above orbital plane
View from above satellite
View from above satellite

Ground track
Ground track

The orbit data is extracted from the following two-line orbital elements,

1 24971U 97057A   24062.51293065  .00000319  00000-0  12679-3 0  9997
2 24971  98.7497  29.5137 0052993 171.1105 189.1030 14.34629773382607
Epoch (UTC): 02 March 2024 12:18:37
Eccentricity: 0.0052993
inclination: 98.7497°
perigee height: 738 km
apogee height: 814 km
right ascension of ascending node: 29.5137°
argument of perigee: 171.1105°
revolutions per day: 14.34629773
mean anomaly at epoch: 189.1030°
orbit number at epoch: 38260

The dashed part of the orbit path shows where the satellite is in the earth's shadow,  

DLR